This demonstration page uses our WeatherBlox Daily Observations layout. Learn more.

Left ArrowRight Arrow

Hourly Observations for May 29, 2021

Temp ( °F °C ) Dew Point ( °F °C ) Humidity (%) Winds ( mph kmh ) Pressure ( in mb ) Visibility ( mi km ) Precip ( " mm )
12:10 am 00:10 Mostly Cloudy with Nearby Thunderstorms 67 19.4 53 11.7 61 61 ENE 21 33 29.90 1012 10 16 0.00 0.00
12:25 am 00:25 Mostly Cloudy 68 20 54 12.2 61 61 SSE 15 24 29.91 1013 10 16 0.00 0.00
12:53 am 00:53 Cloudy with Light Rain 71 21.7 54 12.2 55 55 WNW 16 26 29.85 1011 10 16 0.00 0.00
1:16 am 01:16 Partly Cloudy 71 21.7 53 11.7 53 53 S 20 31 29.82 1010 10 16 0.00 0.00
1:53 am 01:53 Clear 68 20 54 12.2 61 61 S 3 6 29.80 1009 10 16 0.00 0.00
2:53 am 02:53 Clear 65 18.3 56 13.3 73 73 SSW 8 13 29.82 1010 10 16 0.00 0.00
3:53 am 03:53 Clear 64 17.8 56 13.3 75 75 SW 7 11 29.83 1010 10 16 0.00 0.00
4:53 am 04:53 Clear 61 16.1 56 13.3 84 84 Calm 29.85 1011 10 16 0.00 0.00
5:53 am 05:53 Clear 60 15.6 56 13.3 86 86 Calm 29.87 1012 10 16 0.00 0.00
6:53 am 06:53 Sunny 60 15.6 56 13.3 86 86 Calm 29.89 1012 10 16 0.00 0.00
7:53 am 07:53 Sunny 63 17.2 57 13.9 81 81 Calm 29.91 1013 10 16 0.00 0.00
8:53 am 08:53 Sunny 70 21.1 57 13.9 64 64 ENE 6 9 29.91 1013 10 16 0.00 0.00
9:53 am 09:53 Sunny 75 23.9 55 12.8 50 50 ESE 10 17 29.91 1013 10 16 0.00 0.00
10:53 am 10:53 Sunny 77 25 55 12.8 47 47 ESE 9 15 29.89 1012 10 16 0.00 0.00
11:53 am 11:53 Sunny 80 26.7 57 13.9 45 45 SE 12 19 29.89 1012 10 16 0.00 0.00
12:53 pm 12:53 Sunny 83 28.3 57 13.9 41 41 ESE 12 19 29.87 1011 10 16 0.00 0.00
1:53 pm 13:53 Sunny 84 28.9 58 14.4 41 41 ESE 13 20 29.85 1011 10 16 0.00 0.00
2:53 pm 14:53 Sunny 86 30 58 14.4 39 39 SE 9 15 29.83 1010 10 16 0.00 0.00
3:53 pm 15:53 Sunny 88 31.1 58 14.4 36 36 SSE 17 28 29.82 1010 9 14 0.00 0.00
4:53 pm 16:53 Sunny 87 30.6 59 15 39 39 SE 15 24 29.80 1009 10 16 0.00 0.00
5:53 pm 17:53 Sunny 88 31.1 58 14.4 36 36 ESE 17 28 29.78 1009 10 16 0.00 0.00
6:53 pm 18:53 Sunny 87 30.6 57 13.9 36 36 ESE 18 30 29.77 1008 10 16 0.00 0.00
7:53 pm 19:53 Sunny 85 29.4 57 13.9 39 39 ESE 18 30 29.78 1008 10 16 0.00 0.00
8:53 pm 20:53 Clear 83 28.3 57 13.9 41 41 SE 20 31 29.78 1008 10 16 0.00 0.00
9:53 pm 21:53 Clear 80 26.7 58 14.4 47 47 ESE 20 31 29.80 1009 10 16 0.00 0.00
10:53 pm 22:53 Clear 78 25.6 58 14.4 50 50 ESE 21 33 29.81 1010 10 16 0.00 0.00
11:53 pm 23:53 Clear 77 25 57 13.9 50 50 SE 21 33 29.83 1010 10 16 0.00 0.00

Powered by AerisWeather